Погода в Миссуле

США     46°52′17″N   113°59′35″W
темп.,
°C
ветер,
м/с
пор.,
м/с
влажн.,
%
обл.,
%
осадки,
мм/ч
давл.,
гПа
погр.,
м
7 июля, чт
чт700:00+13ююв22932 0.6 101316
03:00+11ююв11942 0.0 101416
06:00+10ююв11955 0.0 101516
09:00+17ююв11661 0.0 1014389
12:00+26ю12370 0.0 1011943
15:00+30ююв3824100 0.0 10083160
18:00+17ю248239 1.1 1012164
21:00+16ю348557 0.6 101490
8 июля, пт
пт800:00+12ююв22930 1.5 101633
03:00+11ююв11940 0.0 101716
06:00+10ююв119494 0.0 101711
09:00+17ююв11730 0.0 1016334
12:00+25сз11412 0.0 1013929
15:00+28юв3534100 0.1 10112304
18:00+22ю235930 1.3 1012520
21:00+19всв01704 0.1 101311
9 июля, сб
сб900:00+14ююз11810 0.1 101611
03:00+13ю11870 0.0 101711
06:00+11ю11910 0.0 101810
09:00+19ю11614 0.0 1017394
12:00+26зсз024022 0.0 10141150
15:00+31ююз172362 0.0 10103374
18:00+15ю4691100 3.1 1015202
21:00+15всв009095 2.6 101612
10 июля, вс
вс1000:00+12ююз11926 3.6 101816
03:00+10юз11892 0.1 101914
06:00+9ююз11885 0.1 102012
09:00+15з126599 0.0 1020510
12:00+22з37305 0.0 10172255
15:00+24з582455 0.0 10162466
18:00+23зсз582735 0.0 10162222
21:00+16зсз365454 0.0 1019184
11 июля, пн
пн1100:00+11зюз1169100 0.0 102312
03:00+10ю117744 0.0 102410
06:00+8ю11820 0.0 102411
09:00+16ююз12530 0.0 1023422
12:00+23з03340 0.0 10201615
15:00+27ссз14260 0.0 10172248
18:00+28ссз24240 0.0 10152325
21:00+20ссв11530 0.0 101711